TimeCDT,TemperatureF,Dew PointF,Humidity,Sea Level PressureIn,VisibilityMPH,Wind Direction,Wind SpeedMPH,Gust SpeedMPH,PrecipitationIn,Events,Conditions,WindDirDegrees,DateUTC
12:15 AM,-9999,-9999,N/A,30.01,10.0,Calm,Calm,-,N/A,,Clear,0,2012-10-06 05:15:00
12:35 AM,-9999,-9999,N/A,30.03,10.0,NW,3.5,-,N/A,,Mostly Cloudy,320,2012-10-06 05:35:00
12:55 AM,-9999,-9999,N/A,30.04,10.0,North,5.8,-,N/A,,Overcast,10,2012-10-06 05:55:00
1:15 AM,-9999,-9999,N/A,30.06,10.0,North,9.2,18.4,N/A,,Overcast,360,2012-10-06 06:15:00
1:35 AM,-9999,-9999,N/A,30.07,10.0,North,5.8,-,N/A,,Overcast,360,2012-10-06 06:35:00
1:55 AM,-9999,-9999,N/A,30.07,10.0,NNE,8.1,-,N/A,,Overcast,20,2012-10-06 06:55:00
2:15 AM,-9999,-9999,N/A,30.08,10.0,North,5.8,-,N/A,,Overcast,10,2012-10-06 07:15:00
2:35 AM,-9999,-9999,N/A,30.09,10.0,NNE,8.1,-,N/A,,Overcast,20,2012-10-06 07:35:00
2:55 AM,-9999,-9999,N/A,30.09,10.0,North,4.6,-,N/A,,Overcast,360,2012-10-06 07:55:00
3:15 AM,-9999,-9999,N/A,30.09,10.0,North,4.6,-,N/A,,Overcast,10,2012-10-06 08:15:00
3:35 AM,-9999,-9999,N/A,30.09,10.0,North,5.8,-,N/A,,Overcast,10,2012-10-06 08:35:00
3:55 AM,-9999,-9999,N/A,30.09,10.0,North,6.9,-,N/A,,Overcast,10,2012-10-06 08:55:00
4:15 AM,-9999,-9999,N/A,30.09,10.0,NNE,4.6,-,N/A,,Overcast,20,2012-10-06 09:15:00
4:35 AM,-9999,-9999,N/A,30.10,10.0,North,5.8,-,N/A,,Overcast,350,2012-10-06 09:35:00
4:55 AM,-9999,-9999,N/A,30.10,10.0,North,3.5,-,N/A,,Overcast,360,2012-10-06 09:55:00
5:15 AM,-9999,-9999,N/A,30.11,10.0,North,8.1,-,N/A,,Overcast,350,2012-10-06 10:15:00
5:35 AM,-9999,-9999,N/A,30.12,10.0,North,4.6,-,N/A,,Overcast,10,2012-10-06 10:35:00
5:55 AM,-9999,-9999,N/A,30.11,10.0,NNE,6.9,-,N/A,,Overcast,30,2012-10-06 10:55:00
6:15 AM,-9999,-9999,N/A,30.13,10.0,Calm,Calm,-,N/A,,Overcast,0,2012-10-06 11:15:00
6:35 AM,-9999,-9999,N/A,30.13,10.0,North,3.5,-,N/A,,Overcast,10,2012-10-06 11:35:00
6:55 AM,-9999,-9999,N/A,30.14,10.0,North,3.5,-,N/A,,Overcast,10,2012-10-06 11:55:00
7:15 AM,-9999,-9999,N/A,30.15,10.0,Calm,Calm,-,N/A,,Overcast,0,2012-10-06 12:15:00
7:35 AM,-9999,-9999,N/A,30.15,10.0,NNE,5.8,-,N/A,,Overcast,20,2012-10-06 12:35:00
7:55 AM,-9999,-9999,N/A,30.15,10.0,Calm,Calm,-,N/A,,Overcast,0,2012-10-06 12:55:00
8:35 AM,-9999,-9999,N/A,30.17,10.0,NNE,5.8,-,N/A,,Overcast,20,2012-10-06 13:35:00
8:55 AM,-9999,-9999,N/A,30.17,10.0,North,5.8,-,N/A,,Overcast,350,2012-10-06 13:55:00
9:15 AM,-9999,-9999,N/A,30.17,10.0,North,4.6,-,N/A,,Overcast,360,2012-10-06 14:15:00
9:35 AM,-9999,-9999,N/A,30.18,10.0,North,3.5,-,N/A,,Overcast,10,2012-10-06 14:35:00
9:55 AM,-9999,-9999,N/A,30.18,10.0,North,3.5,-,N/A,,Overcast,10,2012-10-06 14:55:00
10:15 AM,-9999,-9999,N/A,30.18,10.0,Calm,Calm,-,N/A,,Overcast,0,2012-10-06 15:15:00
10:35 AM,-9999,-9999,N/A,30.18,10.0,North,4.6,-,N/A,,Overcast,360,2012-10-06 15:35:00
10:55 AM,-9999,-9999,N/A,30.17,10.0,NE,5.8,-,N/A,,Overcast,50,2012-10-06 15:55:00
11:15 AM,54.5,54.5,100,30.16,10.0,NNE,6.9,-,N/A,,Overcast,20,2012-10-06 16:15:00
11:35 AM,54.9,50.4,85,30.16,10.0,NNE,4.6,-,N/A,,Overcast,30,2012-10-06 16:35:00
11:55 AM,55.2,51.8,88,30.15,10.0,NE,5.8,-,N/A,,Overcast,50,2012-10-06 16:55:00
12:15 PM,56.1,50.2,80,30.15,10.0,NNE,4.6,-,N/A,,Overcast,20,2012-10-06 17:15:00
12:35 PM,55.9,50.4,82,30.16,10.0,North,4.6,-,N/A,,Overcast,360,2012-10-06 17:35:00
12:55 PM,55.8,51.6,86,30.17,10.0,Calm,Calm,-,N/A,,Overcast,0,2012-10-06 17:55:00
1:15 PM,56.7,49.8,78,30.15,10.0,North,4.6,-,N/A,,Overcast,10,2012-10-06 18:15:00
1:35 PM,56.7,50.5,80,30.14,10.0,North,4.6,-,N/A,,Overcast,350,2012-10-06 18:35:00
1:55 PM,57.4,50.5,78,30.14,10.0,North,4.6,-,N/A,,Overcast,360,2012-10-06 18:55:00
2:15 PM,57.0,52.2,84,30.13,10.0,North,3.5,-,N/A,,Overcast,360,2012-10-06 19:15:00
2:35 PM,57.6,51.1,79,30.13,10.0,Calm,Calm,-,N/A,,Overcast,0,2012-10-06 19:35:00
2:55 PM,57.9,50.4,76,30.12,10.0,North,5.8,-,N/A,,Overcast,10,2012-10-06 19:55:00
3:15 PM,58.1,50.7,76,30.12,10.0,Calm,Calm,-,N/A,,Overcast,0,2012-10-06 20:15:00
3:35 PM,57.4,50.2,77,30.12,10.0,North,4.6,-,N/A,,Overcast,350,2012-10-06 20:35:00
3:55 PM,57.6,50.2,76,30.12,10.0,North,5.8,-,N/A,,Overcast,10,2012-10-06 20:55:00
4:15 PM,57.7,49.8,75,30.12,10.0,Calm,Calm,-,N/A,,Overcast,0,2012-10-06 21:15:00
4:35 PM,57.2,49.1,74,30.12,10.0,North,4.6,-,N/A,,Overcast,10,2012-10-06 21:35:00
4:55 PM,56.7,48.9,75,30.12,10.0,NNW,3.5,-,N/A,,Overcast,340,2012-10-06 21:55:00
5:15 PM,56.3,48.7,76,30.12,10.0,North,5.8,-,N/A,,Overcast,360,2012-10-06 22:15:00
5:35 PM,55.6,48.6,77,30.12,10.0,North,3.5,-,N/A,,Overcast,10,2012-10-06 22:35:00
5:55 PM,55.0,47.8,77,30.13,10.0,North,4.6,-,N/A,,Overcast,10,2012-10-06 22:55:00
6:15 PM,54.9,47.5,76,30.13,10.0,Calm,Calm,-,N/A,,Overcast,0,2012-10-06 23:15:00
6:35 PM,54.5,46.4,74,30.14,10.0,North,4.6,-,N/A,,Overcast,360,2012-10-06 23:35:00
6:55 PM,54.0,47.7,79,30.14,10.0,North,6.9,-,N/A,,Overcast,360,2012-10-06 23:55:00
7:15 PM,52.7,52.7,100,30.15,10.0,Calm,Calm,-,N/A,,Overcast,0,2012-10-07 00:15:00
7:35 PM,51.8,51.8,100,30.16,10.0,NNW,4.6,-,N/A,,Overcast,340,2012-10-07 00:35:00
7:55 PM,-9999,-9999,N/A,30.17,10.0,North,4.6,-,N/A,,Overcast,10,2012-10-07 00:55:00
8:15 PM,-9999,-9999,N/A,30.17,10.0,Calm,Calm,-,N/A,,Overcast,0,2012-10-07 01:15:00
8:35 PM,-9999,-9999,N/A,30.18,10.0,Calm,Calm,-,N/A,,Overcast,0,2012-10-07 01:35:00
8:55 PM,-9999,-9999,N/A,30.19,10.0,Calm,Calm,-,N/A,,Overcast,0,2012-10-07 01:55:00
9:15 PM,-9999,-9999,N/A,30.18,10.0,Calm,Calm,-,N/A,,Overcast,0,2012-10-07 02:15:00
9:35 PM,-9999,-9999,N/A,30.18,10.0,Calm,Calm,-,N/A,,Overcast,0,2012-10-07 02:35:00
9:55 PM,51.1,51.1,100,30.19,10.0,Calm,Calm,-,N/A,,Overcast,0,2012-10-07 02:55:00
10:15 PM,51.1,51.1,100,30.19,10.0,North,3.5,-,N/A,,Overcast,360,2012-10-07 03:15:00
10:35 PM,51.1,51.1,100,30.19,10.0,Calm,Calm,-,N/A,,Overcast,0,2012-10-07 03:35:00
10:55 PM,51.1,51.1,100,30.20,10.0,Calm,Calm,-,N/A,,Overcast,0,2012-10-07 03:55:00
11:15 PM,-9999,-9999,N/A,30.19,10.0,Calm,Calm,-,N/A,,Overcast,0,2012-10-07 04:15:00
11:35 PM,-9999,-9999,N/A,30.18,10.0,Calm,Calm,-,N/A,,Overcast,0,2012-10-07 04:35:00
11:55 PM,-9999,-9999,N/A,30.19,10.0,Calm,Calm,-,N/A,,Overcast,0,2012-10-07 04:55:00